Weather History for Ephrata, WA

Change the Weather History Date:

Tuesday, March 26, 2013

  Actual Average Record
Temperature  
Mean Temperature 47 °F 46 °F  
Max Temperature 60 °F 58 °F 72 °F (1994)
Min Temperature 33 °F 34 °F 20 °F (1955)
Degree Days  
Heating Degree Days 18 19  
Month to date heating degree days 592 592  
Since 1 July heating degree days 4825 5165  
Cooling Degree Days 0 0  
Month to date cooling degree days 0 0  
Year to date cooling degree days 0 0  
Moisture  
Dew Point 26 °F    
Average Humidity 46    
Maximum Humidity 62    
Minimum Humidity 30    
Precipitation  
Precipitation 0.00 in 0.02 in 0.20 in (1981)
Month to date precipitation 0.54 0.58  
Year to date precipitation 0.89 2.23  
Sea Level Pressure  
Sea Level Pressure 29.98 in    
Wind  
Wind Speed 4 mph (NNW)    
Max Wind Speed 15 mph    
Max Gust Speed -    
Visibility 10 miles    
Events      
T = Trace of Precipitation, MM = Missing Value Source: NWS Daily Summary

Daily Weather History Graph

Daily Weather History Graph

Search for Another Location

Airport:

Trip Planner

Search our weather history database for the weather conditions in past years. The results will help you decide how hot, cold, wet, or windy it might be!

Date:

Astronomy

Mar. 26, 2013 Rise Set
Actual Time 6:48 AM PDT 7:19 PM PDT
Civil Twilight 6:17 AM PDT 7:50 PM PDT
Nautical Twilight 5:41 AM PDT 8:27 PM PDT
Astronomical Twilight 5:03 AM PDT 9:05 PM PDT
Moon 7:03 PM PDT (3/26) 6:08 AM PDT (3/26)
Length of Visible Light 13h 32m
Length of Day
12h 31m
Full, 100% of the Moon is Illuminated
Mar 26
Full
Mar 27
Full
Apr 2
Last Quarter
Apr 10
New
Apr 18
First Quarter

Hourly Weather History & Observations

Time (PDT) Temp. Windchill Dew Point Humidity Pressure Visibility Wind Dir Wind Speed Gust Speed Precip Events Conditions
12:53 AM 39.9 °F 34.5 °F 21.9 °F 49% 30.00 in 10.0 mi NNW 8.1 mph - N/A   Clear
1:53 AM 39.9 °F 32.9 °F 21.9 °F 49% 29.99 in 10.0 mi NW 11.5 mph - N/A   Clear
2:53 AM 39.9 °F 33.9 °F 21.0 °F 47% 29.99 in 10.0 mi NW 9.2 mph - N/A   Clear
3:53 AM 37.9 °F 32.1 °F 21.9 °F 53% 29.99 in 10.0 mi NNW 8.1 mph - N/A   Clear
4:53 AM 37.9 °F 32.7 °F 21.0 °F 51% 29.99 in 10.0 mi NNW 6.9 mph - N/A   Clear
5:53 AM 34.0 °F 27.2 °F 21.9 °F 61% 30.01 in 10.0 mi North 8.1 mph - N/A   Clear
6:53 AM 36.0 °F 30.3 °F 21.9 °F 57% 30.01 in 10.0 mi NNW 6.9 mph - N/A   Clear
7:53 AM 37.0 °F 33.3 °F 24.1 °F 59% 30.03 in 10.0 mi NNE 4.6 mph - N/A   Clear
8:53 AM 44.1 °F 41.5 °F 25.0 °F 47% 30.03 in 10.0 mi North 4.6 mph - N/A   Clear
9:53 AM 46.9 °F - 25.0 °F 42% 30.03 in 10.0 mi North 4.6 mph - N/A   Clear
10:53 AM 51.1 °F - 21.9 °F 32% 30.02 in 10.0 mi NE 4.6 mph - N/A   Clear
11:53 AM 53.1 °F - 24.1 °F 32% 30.01 in 10.0 mi Calm Calm - N/A   Clear
12:53 PM 55.0 °F - 26.1 °F 33% 30.00 in 10.0 mi WNW 4.6 mph - N/A   Clear
1:53 PM 57.0 °F - 26.1 °F 30% 29.99 in 10.0 mi Calm Calm - N/A   Clear
2:53 PM 57.0 °F - 27.0 °F 32% 29.97 in 10.0 mi Calm Calm - N/A   Clear
3:53 PM 57.0 °F - 27.0 °F 32% 29.96 in 10.0 mi South 3.5 mph - N/A   Clear
4:53 PM 57.9 °F - 27.0 °F 31% 29.95 in 10.0 mi Calm Calm - N/A   Clear
5:53 PM 57.0 °F - 28.9 °F 34% 29.94 in 10.0 mi South 4.6 mph - N/A   Clear
6:53 PM 54.0 °F - 30.0 °F 40% 29.94 in 10.0 mi South 3.5 mph - N/A   Clear
7:53 PM 48.9 °F - 33.1 °F 54% 29.94 in 10.0 mi South 4.6 mph - N/A   Clear
8:53 PM 48.0 °F - 30.9 °F 52% 29.95 in 10.0 mi Calm Calm - N/A   Clear
9:53 PM 48.0 °F - 32.0 °F 54% 29.94 in 10.0 mi Calm Calm - N/A   Clear
10:53 PM 46.9 °F - 32.0 °F 56% 29.94 in 10.0 mi Calm Calm - N/A   Clear
11:53 PM 45.0 °F 41.8 °F 32.0 °F 60% 29.94 in 10.0 mi NE 5.8 mph - N/A   Clear